Time,TemperatureF,DewpointF,PressureIn,WindDirection,WindDirectionDegrees,WindSpeedMPH,WindSpeedGustMPH,Humidity,HourlyPrecipIn,Conditions,Clouds,dailyrainin,SoftwareType,DateUTC
2013-02-25 00:08:00,30.6,-58.9,29.82,NE,45,4.2,-999.0,1,-99.99,,,0.00,Acu-Link.com,2013-02-25 05:08:00,
2013-02-25 00:23:00,30.4,-9.1,29.83,NNE,22,3.2,-999.0,17,-99.99,,,0.00,Acu-Link.com,2013-02-25 05:23:00,
2013-02-25 00:40:00,30.2,22.6,29.77,NE,45,2.7,-999.0,73,-99.99,,,0.00,Acu-Link.com,2013-02-25 05:40:00,
2013-02-25 00:55:00,29.8,-59.4,29.85,NNE,22,3.7,-999.0,1,-99.99,,,0.00,Acu-Link.com,2013-02-25 05:55:00,
2013-02-25 01:10:00,29.7,-59.5,29.83,WNW,292,3.7,-999.0,1,-99.99,,,0.00,Acu-Link.com,2013-02-25 06:10:00,
2013-02-25 01:25:00,30.2,-59.2,29.85,NE,45,4.7,-999.0,1,-99.99,,,0.00,Acu-Link.com,2013-02-25 06:25:00,
2013-02-25 01:41:00,30.2,-59.2,29.85,NE,45,2.7,-999.0,1,-99.99,,,0.00,Acu-Link.com,2013-02-25 06:41:00,
2013-02-25 01:56:00,30.2,-59.2,29.85,NNE,22,2.7,-999.0,1,-99.99,,,0.00,Acu-Link.com,2013-02-25 06:56:00,
2013-02-25 02:11:00,30.2,-59.2,29.85,NNE,22,4.2,-999.0,1,-99.99,,,0.00,Acu-Link.com,2013-02-25 07:11:00,
2013-02-25 02:27:00,30.0,-59.3,29.86,NNE,22,2.2,-999.0,1,-99.99,,,0.00,Acu-Link.com,2013-02-25 07:27:00,
2013-02-25 02:42:00,29.8,-59.4,29.86,NNE,22,2.7,-999.0,1,-99.99,,,0.00,Acu-Link.com,2013-02-25 07:42:00,
2013-02-25 02:57:00,29.1,-59.9,29.87,NNE,22,2.2,-999.0,1,-99.99,,,0.00,Acu-Link.com,2013-02-25 07:57:00,
2013-02-25 03:13:00,28.6,-60.2,29.87,NNE,22,2.7,-999.0,1,-99.99,,,0.00,Acu-Link.com,2013-02-25 08:13:00,
2013-02-25 03:28:00,28.8,-60.1,29.87,NNE,22,3.7,-999.0,1,-99.99,,,0.00,Acu-Link.com,2013-02-25 08:28:00,
2013-02-25 03:43:00,29.3,-59.8,29.87,NNE,22,3.7,-999.0,1,-99.99,,,0.00,Acu-Link.com,2013-02-25 08:43:00,
2013-02-25 03:59:00,29.3,-59.8,29.88,NE,45,2.7,-999.0,1,-99.99,,,0.00,Acu-Link.com,2013-02-25 08:59:00,
2013-02-25 04:17:00,29.3,-59.8,29.87,NE,45,3.2,-999.0,1,-99.99,,,0.00,Acu-Link.com,2013-02-25 09:17:00,
2013-02-25 04:33:00,29.5,-59.6,29.88,NE,45,2.7,-999.0,1,-99.99,,,0.00,Acu-Link.com,2013-02-25 09:33:00,
2013-02-25 04:48:00,29.3,-59.8,29.88,North,0,3.2,-999.0,1,-99.99,,,0.00,Acu-Link.com,2013-02-25 09:48:00,
2013-02-25 05:03:00,29.3,-59.8,29.90,North,0,2.7,-999.0,1,-99.99,,,0.00,Acu-Link.com,2013-02-25 10:03:00,
2013-02-25 05:18:00,29.5,-59.6,29.91,East,90,2.7,-999.0,1,-99.99,,,0.00,Acu-Link.com,2013-02-25 10:18:00,
2013-02-25 05:33:00,29.5,-59.6,29.91,NNE,22,2.7,-999.0,1,-99.99,,,0.00,Acu-Link.com,2013-02-25 10:33:00,
2013-02-25 05:48:00,29.3,-59.8,29.92,NNE,22,2.7,-999.0,1,-99.99,,,0.00,Acu-Link.com,2013-02-25 10:48:00,
2013-02-25 06:03:00,29.3,-59.8,29.92,NE,45,2.7,-999.0,1,-99.99,,,0.00,Acu-Link.com,2013-02-25 11:03:00,
2013-02-25 06:18:00,29.1,-59.9,29.91,NNE,22,3.2,-999.0,1,-99.99,,,0.00,Acu-Link.com,2013-02-25 11:18:00,
2013-02-25 06:33:00,29.7,-59.5,29.91,NE,45,2.7,-999.0,1,-99.99,,,0.00,Acu-Link.com,2013-02-25 11:33:00,
2013-02-25 06:49:00,29.7,-59.5,29.93,NNW,337,2.2,-999.0,1,-99.99,,,0.00,Acu-Link.com,2013-02-25 11:49:00,
2013-02-25 07:04:00,29.5,-59.6,29.93,NNW,337,1.7,-999.0,1,-99.99,,,0.00,Acu-Link.com,2013-02-25 12:04:00,
2013-02-25 07:19:00,29.5,-59.6,29.95,NE,45,1.7,-999.0,1,-99.99,,,0.00,Acu-Link.com,2013-02-25 12:19:00,
2013-02-25 07:34:00,29.7,-59.5,29.95,NNE,22,0.0,-999.0,1,-99.99,,,0.00,Acu-Link.com,2013-02-25 12:34:00,
2013-02-25 07:49:00,30.6,-58.9,29.95,NNE,22,2.2,-999.0,1,-99.99,,,0.00,Acu-Link.com,2013-02-25 12:49:00,
2013-02-25 08:05:00,31.6,-58.3,29.95,NW,315,2.2,-999.0,1,-99.99,,,0.00,Acu-Link.com,2013-02-25 13:05:00,
2013-02-25 08:20:00,32.7,-57.6,29.96,NNW,337,3.2,-999.0,1,-99.99,,,0.00,Acu-Link.com,2013-02-25 13:20:00,
2013-02-25 08:35:00,33.4,-57.2,29.96,WNW,292,2.2,-999.0,1,-99.99,,,0.00,Acu-Link.com,2013-02-25 13:35:00,
2013-02-25 08:50:00,34.9,-56.3,29.95,NNW,337,6.8,-999.0,1,-99.99,,,0.00,Acu-Link.com,2013-02-25 13:50:00,
2013-02-25 09:06:00,36.0,-55.6,29.96,East,90,2.7,-999.0,1,-99.99,,,0.00,Acu-Link.com,2013-02-25 14:06:00,
2013-02-25 09:21:00,37.0,-55.0,29.96,ENE,67,5.3,-999.0,1,-99.99,,,0.00,Acu-Link.com,2013-02-25 14:21:00,
2013-02-25 09:36:00,37.4,-54.7,29.96,NE,45,4.7,-999.0,1,-99.99,,,0.00,Acu-Link.com,2013-02-25 14:36:00,
2013-02-25 09:52:00,38.7,-35.6,29.97,NW,315,4.7,-999.0,3,-99.99,,,0.00,Acu-Link.com,2013-02-25 14:52:00,
2013-02-25 10:39:00,40.5,-52.8,29.99,NW,315,6.8,-999.0,1,-99.99,,,0.00,Acu-Link.com,2013-02-25 15:39:00,
2013-02-25 10:54:00,39.6,-53.3,29.98,West,270,3.7,-999.0,1,-99.99,,,0.00,Acu-Link.com,2013-02-25 15:54:00,
2013-02-25 11:10:00,39.7,-53.3,29.99,West,270,4.2,-999.0,1,-99.99,,,0.00,Acu-Link.com,2013-02-25 16:10:00,
2013-02-25 11:25:00,39.9,-53.2,29.98,NW,315,5.3,-999.0,1,-99.99,,,0.00,Acu-Link.com,2013-02-25 16:25:00,
2013-02-25 11:40:00,40.8,-52.6,29.98,NNE,22,4.2,-999.0,1,-99.99,,,0.00,Acu-Link.com,2013-02-25 16:40:00,
2013-02-25 11:55:00,41.0,-28.8,29.97,NE,45,3.2,-999.0,4,-99.99,,,0.00,Acu-Link.com,2013-02-25 16:55:00,
2013-02-25 16:09:00,41.7,41.2,30.00,NNW,337,4.2,-999.0,98,-99.99,,,0.00,Acu-Link.com,2013-02-25 21:09:00,
2013-02-25 16:24:00,41.2,40.7,30.00,NE,45,2.2,-999.0,98,-99.99,,,0.00,Acu-Link.com,2013-02-25 21:24:00,
2013-02-25 16:40:00,40.8,26.3,29.99,NNE,22,3.2,-999.0,56,-99.99,,,0.00,Acu-Link.com,2013-02-25 21:40:00,
2013-02-25 16:55:00,40.5,-52.8,29.95,NNE,22,2.7,-999.0,1,-99.99,,,0.00,Acu-Link.com,2013-02-25 21:55:00,